,,PressureMeas_1m,,PRMeasQMR101_1,,RHStat155_1m_1,,SRMeasQMS101R_1m,,TAStat155_1m_1,,GenWind_1,,GenWind_1,
2018-12-25, 07:00:07,VALID,918.584,VALID,0.0,VALID,98.826,VALID,33.224,VALID,19.779,VALID,12.0,VALID,0.0,
2018-12-25, 07:01:07,VALID,918.58,VALID,0.0,VALID,98.82,VALID,33.743,VALID,19.796,VALID,354.0,VALID,0.0,
2018-12-25, 07:02:07,VALID,918.612,VALID,0.0,VALID,98.814,VALID,32.708,VALID,19.816,VALID,320.0,VALID,0.0,
2018-12-25, 07:03:07,VALID,918.622,VALID,0.0,VALID,98.811,VALID,32.841,VALID,19.8,VALID,350.0,VALID,0.0,
2018-12-25, 07:04:07,VALID,918.617,VALID,0.0,VALID,98.785,VALID,34.496,VALID,19.822,VALID,10.0,VALID,0.0,
2018-12-25, 07:05:07,VALID,918.604,VALID,0.0,VALID,98.782,VALID,38.636,VALID,19.839,VALID,349.0,VALID,0.0,
2018-12-25, 07:06:07,VALID,918.613,VALID,0.0,VALID,98.712,VALID,41.147,VALID,19.812,VALID,342.0,VALID,0.0,
2018-12-25, 07:07:07,VALID,918.62,VALID,0.0,VALID,98.728,VALID,39.556,VALID,19.846,VALID,344.0,VALID,0.0,
2018-12-25, 07:08:07,VALID,918.614,VALID,0.0,VALID,98.75,VALID,38.06,VALID,19.883,VALID,5.0,VALID,0.0,
2018-12-25, 07:09:07,VALID,918.633,VALID,0.0,VALID,98.75,VALID,33.936,VALID,19.918,VALID,17.0,VALID,0.0,
2018-12-25, 07:10:07,VALID,918.646,VALID,0.0,VALID,98.768,VALID,35.241,VALID,19.948,VALID,19.0,VALID,0.0,
2018-12-25, 07:11:07,VALID,918.669,VALID,0.0,VALID,98.771,VALID,39.508,VALID,19.971,VALID,19.0,VALID,0.0,
2018-12-25, 07:12:07,VALID,918.661,VALID,0.0,VALID,98.75,VALID,35.757,VALID,19.998,VALID,16.0,VALID,0.0,
2018-12-25, 07:13:07,VALID,918.685,VALID,0.0,VALID,98.651,VALID,34.557,VALID,19.971,VALID,28.0,VALID,0.0,
2018-12-25, 07:14:07,VALID,918.704,VALID,0.0,VALID,98.674,VALID,32.456,VALID,19.997,VALID,107.0,VALID,0.0,
2018-12-25, 07:15:07,VALID,918.703,VALID,0.0,VALID,98.599,VALID,33.608,VALID,19.984,VALID,137.0,VALID,0.0,
2018-12-25, 07:16:07,VALID,918.695,VALID,0.0,VALID,98.559,VALID,39.158,VALID,20.003,VALID,94.0,VALID,0.0,
2018-12-25, 07:17:07,VALID,918.699,VALID,0.0,VALID,98.583,VALID,44.007,VALID,20.047,VALID,60.0,VALID,0.0,
2018-12-25, 07:18:07,VALID,918.683,VALID,0.0,VALID,98.53,VALID,49.853,VALID,20.053,VALID,60.0,VALID,0.0,
2018-12-25, 07:19:07,VALID,918.682,VALID,0.0,VALID,98.481,VALID,52.633,VALID,20.052,VALID,60.0,VALID,0.0,
2018-12-25, 07:20:07,VALID,918.699,VALID,0.0,VALID,98.38,VALID,42.537,VALID,20.027,VALID,58.0,VALID,0.0,
2018-12-25, 07:21:07,VALID,918.711,VALID,0.0,VALID,98.35,VALID,41.878,VALID,20.04,VALID,58.0,VALID,0.0,
2018-12-25, 07:22:07,VALID,918.737,VALID,0.0,VALID,98.303,VALID,44.271,VALID,20.067,VALID,58.0,VALID,0.0,
2018-12-25, 07:23:07,VALID,918.747,VALID,0.0,VALID,98.247,VALID,40.562,VALID,20.089,VALID,58.0,VALID,0.0,
2018-12-25, 07:24:07,VALID,918.768,VALID,0.0,VALID,98.199,VALID,40.197,VALID,20.124,VALID,62.0,VALID,0.0,
2018-12-25, 07:25:07,VALID,918.787,VALID,0.0,VALID,98.131,VALID,40.298,VALID,20.137,VALID,78.0,VALID,0.0,
2018-12-25, 07:26:07,VALID,918.779,VALID,0.0,VALID,98.071,VALID,38.79,VALID,20.154,VALID,75.0,VALID,0.0,
2018-12-25, 07:27:07,VALID,918.791,VALID,0.0,VALID,97.99,VALID,42.097,VALID,20.174,VALID,50.0,VALID,0.0,
2018-12-25, 07:28:07,VALID,918.798,VALID,0.0,VALID,97.958,VALID,42.703,VALID,20.188,VALID,54.0,VALID,0.0,
2018-12-25, 07:29:07,VALID,918.805,VALID,0.0,VALID,97.843,VALID,38.755,VALID,20.181,VALID,54.0,VALID,0.0,
2018-12-25, 07:30:07,VALID,918.803,VALID,0.0,VALID,97.728,VALID,39.055,VALID,20.171,VALID,51.0,VALID,0.0,
2018-12-25, 07:31:07,VALID,918.801,VALID,0.0,VALID,97.756,VALID,48.231,VALID,20.173,VALID,25.0,VALID,0.0,
2018-12-25, 07:32:07,VALID,918.809,VALID,0.0,VALID,97.638,VALID,54.642,VALID,20.141,VALID,360.0,VALID,0.0,
2018-12-25, 07:33:07,VALID,918.84,VALID,0.0,VALID,97.472,VALID,56.007,VALID,20.086,VALID,11.0,VALID,0.0,
2018-12-25, 07:34:07,VALID,918.86,VALID,0.0,VALID,97.444,VALID,65.359,VALID,20.075,VALID,12.0,VALID,0.0,
2018-12-25, 07:35:07,VALID,918.867,VALID,0.0,VALID,97.52,VALID,96.119,VALID,20.081,VALID,39.0,VALID,0.0,
2018-12-25, 07:36:07,VALID,918.882,VALID,0.0,VALID,97.624,VALID,117.79,VALID,20.122,VALID,37.0,VALID,0.0,
2018-12-25, 07:37:07,VALID,918.873,VALID,0.0,VALID,97.769,VALID,124.885,VALID,20.188,VALID,30.0,VALID,0.0,
2018-12-25, 07:38:07,VALID,918.868,VALID,0.0,VALID,97.771,VALID,121.902,VALID,20.226,VALID,15.0,VALID,0.0,
2018-12-25, 07:39:07,VALID,918.865,VALID,0.0,VALID,97.741,VALID,118.483,VALID,20.264,VALID,18.0,VALID,0.0,
2018-12-25, 07:40:07,VALID,918.88,VALID,0.0,VALID,97.546,VALID,137.759,VALID,20.266,VALID,34.0,VALID,0.0,
2018-12-25, 07:41:07,VALID,918.913,VALID,0.0,VALID,97.59,VALID,175.973,VALID,20.343,VALID,38.0,VALID,0.0,
2018-12-25, 07:42:07,VALID,918.923,VALID,0.0,VALID,97.583,VALID,167.088,VALID,20.421,VALID,36.0,VALID,0.0,
2018-12-25, 07:43:07,VALID,918.941,VALID,0.0,VALID,97.062,VALID,143.673,VALID,20.402,VALID,86.0,VALID,0.0,
2018-12-25, 07:44:07,VALID,918.936,VALID,0.0,VALID,96.615,VALID,146.554,VALID,20.417,VALID,129.0,VALID,0.0,
2018-12-25, 07:45:07,VALID,918.932,VALID,0.0,VALID,96.625,VALID,164.477,VALID,20.496,VALID,192.0,VALID,0.0,
2018-12-25, 07:46:07,VALID,918.933,VALID,0.0,VALID,95.757,VALID,144.803,VALID,20.429,VALID,254.0,VALID,0.0,
2018-12-25, 07:47:07,VALID,918.961,VALID,0.0,VALID,95.555,VALID,123.715,VALID,20.43,VALID,292.0,VALID,0.0,
2018-12-25, 07:48:07,VALID,918.979,VALID,0.0,VALID,95.374,VALID,155.12,VALID,20.442,VALID,178.0,VALID,0.0,
2018-12-25, 07:49:07,VALID,919.014,VALID,0.0,VALID,95.169,VALID,181.871,VALID,20.432,VALID,308.0,VALID,0.0,
2018-12-25, 07:50:07,VALID,919.024,VALID,0.0,VALID,95.849,VALID,190.265,VALID,20.516,VALID,5.0,VALID,0.0,
2018-12-25, 07:51:07,VALID,919.029,VALID,0.0,VALID,96.152,VALID,151.777,VALID,20.59,VALID,27.0,VALID,0.0,
2018-12-25, 07:52:07,VALID,919.035,VALID,0.0,VALID,96.018,VALID,123.367,VALID,20.644,VALID,16.0,VALID,0.0,
2018-12-25, 07:53:07,VALID,919.022,VALID,0.0,VALID,95.989,VALID,136.914,VALID,20.706,VALID,290.0,VALID,0.0,
2018-12-25, 07:54:07,VALID,919.038,VALID,0.0,VALID,95.209,VALID,138.917,VALID,20.665,VALID,334.0,VALID,0.0,
2018-12-25, 07:55:07,VALID,919.057,VALID,0.0,VALID,95.606,VALID,200.986,VALID,20.738,VALID,34.0,VALID,0.0,
2018-12-25, 07:56:06,VALID,919.065,VALID,0.0,VALID,95.674,VALID,257.902,VALID,20.831,VALID,36.0,VALID,0.0,
2018-12-25, 07:57:06,VALID,919.058,VALID,0.0,VALID,95.469,VALID,317.838,VALID,20.939,VALID,41.0,VALID,0.0,
2018-12-25, 07:58:06,VALID,919.088,VALID,0.0,VALID,94.969,VALID,307.108,VALID,21.031,VALID,13.0,VALID,0.0,
2018-12-25, 07:59:06,VALID,919.098,VALID,0.0,VALID,94.354,VALID,281.303,VALID,21.115,VALID,337.0,VALID,0.0,
2018-12-25, 08:00:06,VALID,919.122,VALID,0.0,VALID,93.088,VALID,206.714,VALID,21.1,VALID,266.0,VALID,0.0,
2018-12-25, 08:01:06,VALID,919.13,VALID,0.0,VALID,92.575,VALID,131.418,VALID,21.041,VALID,283.0,VALID,0.0,
2018-12-25, 08:02:06,VALID,919.144,VALID,0.0,VALID,93.296,VALID,155.136,VALID,21.018,VALID,204.0,VALID,0.0,
2018-12-25, 08:03:06,VALID,919.167,VALID,0.0,VALID,93.675,VALID,229.987,VALID,21.026,VALID,285.0,VALID,0.0,
2018-12-25, 08:04:06,VALID,919.156,VALID,0.0,VALID,94.285,VALID,302.606,VALID,21.108,VALID,14.0,VALID,0.0,
2018-12-25, 08:05:06,VALID,919.167,VALID,0.0,VALID,94.769,VALID,484.511,VALID,21.239,VALID,356.0,VALID,0.0,
2018-12-25, 08:06:06,VALID,919.184,VALID,0.0,VALID,94.532,VALID,434.562,VALID,21.346,VALID,216.0,VALID,0.0,
2018-12-25, 08:07:06,VALID,919.205,VALID,0.0,VALID,92.332,VALID,216.707,VALID,21.35,VALID,307.0,VALID,0.0,
2018-12-25, 08:08:06,VALID,919.208,VALID,0.0,VALID,92.206,VALID,187.145,VALID,21.394,VALID,7.0,VALID,0.0,
2018-12-25, 08:09:06,VALID,919.218,VALID,0.0,VALID,92.284,VALID,149.426,VALID,21.379,VALID,12.0,VALID,0.0,
2018-12-25, 08:10:06,VALID,919.228,VALID,0.0,VALID,93.535,VALID,144.474,VALID,21.377,VALID,284.0,VALID,0.0,
2018-12-25, 08:11:06,VALID,919.227,VALID,0.0,VALID,90.651,VALID,189.858,VALID,21.15,VALID,186.0,VALID,0.0,
2018-12-25, 08:12:06,VALID,919.203,VALID,0.0,VALID,92.105,VALID,375.005,VALID,21.156,VALID,12.0,VALID,0.0,
2018-12-25, 08:13:06,VALID,919.2,VALID,0.0,VALID,92.61,VALID,521.759,VALID,21.228,VALID,344.0,VALID,0.0,
2018-12-25, 08:14:06,VALID,919.19,VALID,0.0,VALID,93.135,VALID,235.528,VALID,21.335,VALID,5.0,VALID,0.0,
2018-12-25, 08:15:06,VALID,919.165,VALID,0.0,VALID,93.721,VALID,109.534,VALID,21.477,VALID,23.0,VALID,0.0,
2018-12-25, 08:16:06,VALID,919.159,VALID,0.0,VALID,92.149,VALID,75.117,VALID,21.47,VALID,25.0,VALID,0.0,
2018-12-25, 08:17:06,VALID,919.17,VALID,0.0,VALID,92.439,VALID,76.644,VALID,21.485,VALID,324.0,VALID,0.0,
2018-12-25, 08:18:06,VALID,919.19,VALID,0.0,VALID,91.753,VALID,97.951,VALID,21.444,VALID,16.0,VALID,0.0,
2018-12-25, 08:19:06,VALID,919.198,VALID,0.0,VALID,91.639,VALID,136.656,VALID,21.384,VALID,262.0,VALID,0.0,
2018-12-25, 08:20:06,VALID,919.194,VALID,0.0,VALID,92.027,VALID,148.231,VALID,21.35,VALID,8.0,VALID,0.0,
2018-12-25, 08:21:06,VALID,919.197,VALID,0.0,VALID,91.779,VALID,156.873,VALID,21.278,VALID,337.0,VALID,0.0,
2018-12-25, 08:22:06,VALID,919.195,VALID,0.0,VALID,92.17,VALID,308.517,VALID,21.224,VALID,343.0,VALID,0.0,
2018-12-25, 08:23:06,VALID,919.202,VALID,0.0,VALID,92.761,VALID,442.287,VALID,21.298,VALID,14.0,VALID,0.0,
2018-12-25, 08:24:06,VALID,919.214,VALID,0.0,VALID,93.197,VALID,509.52,VALID,21.513,VALID,27.0,VALID,0.0,
2018-12-25, 08:25:06,VALID,919.206,VALID,0.0,VALID,93.311,VALID,351.583,VALID,21.781,VALID,54.0,VALID,0.0,
2018-12-25, 08:26:06,VALID,919.223,VALID,0.0,VALID,90.449,VALID,293.142,VALID,21.946,VALID,344.0,VALID,0.0,
2018-12-25, 08:27:06,VALID,919.241,VALID,0.0,VALID,89.452,VALID,319.788,VALID,22.026,VALID,49.0,VALID,0.0,
2018-12-25, 08:28:06,VALID,919.245,VALID,0.0,VALID,89.523,VALID,333.419,VALID,22.121,VALID,41.0,VALID,0.0,
2018-12-25, 08:29:06,VALID,919.239,VALID,0.0,VALID,88.489,VALID,244.204,VALID,22.192,VALID,310.0,VALID,0.0,
2018-12-25, 08:30:06,VALID,919.198,VALID,0.0,VALID,87.318,VALID,209.213,VALID,22.063,VALID,21.0,VALID,0.0,
2018-12-25, 08:31:06,VALID,919.185,VALID,0.0,VALID,89.357,VALID,214.757,VALID,21.918,VALID,29.0,VALID,0.0,
2018-12-25, 08:32:06,VALID,919.186,VALID,0.0,VALID,89.253,VALID,220.306,VALID,21.887,VALID,347.0,VALID,0.0,
2018-12-25, 08:33:06,VALID,919.2,VALID,0.0,VALID,89.538,VALID,184.369,VALID,21.902,VALID,14.0,VALID,0.0,
2018-12-25, 08:34:06,VALID,919.228,VALID,0.0,VALID,90.187,VALID,230.803,VALID,21.905,VALID,14.0,VALID,0.0,
2018-12-25, 08:35:06,VALID,919.229,VALID,0.0,VALID,90.227,VALID,410.941,VALID,21.858,VALID,356.0,VALID,0.0,
2018-12-25, 08:36:06,VALID,919.248,VALID,0.0,VALID,89.16,VALID,638.382,VALID,21.772,VALID,5.0,VALID,0.423,
2018-12-25, 08:37:06,VALID,919.25,VALID,0.0,VALID,89.834,VALID,337.745,VALID,21.743,VALID,334.0,VALID,0.899,
2018-12-25, 08:38:06,VALID,919.27,VALID,0.0,VALID,91.273,VALID,233.346,VALID,21.903,VALID,329.0,VALID,0.709,
2018-12-25, 08:39:06,VALID,919.278,VALID,0.0,VALID,88.902,VALID,205.803,VALID,21.974,VALID,341.0,VALID,0.119,
2018-12-25, 08:40:06,VALID,919.305,VALID,0.0,VALID,88.579,VALID,210.66,VALID,22.068,VALID,9.0,VALID,0.0,
2018-12-25, 08:41:06,VALID,919.342,VALID,0.0,VALID,89.126,VALID,255.599,VALID,22.183,VALID,333.0,VALID,0.0,
2018-12-25, 08:42:06,VALID,919.347,VALID,0.0,VALID,89.189,VALID,263.057,VALID,22.151,VALID,7.0,VALID,0.366,
2018-12-25, 08:43:06,VALID,919.344,VALID,0.0,VALID,88.203,VALID,257.804,VALID,22.095,VALID,1.0,VALID,0.651,
2018-12-25, 08:44:06,VALID,919.361,VALID,0.0,VALID,88.784,VALID,219.608,VALID,22.048,VALID,50.0,VALID,0.237,
2018-12-25, 08:45:06,VALID,919.346,VALID,0.0,VALID,89.024,VALID,187.097,VALID,22.086,VALID,338.0,VALID,0.371,
2018-12-25, 08:46:06,VALID,919.376,VALID,0.0,VALID,88.9,VALID,189.047,VALID,22.112,VALID,16.0,VALID,0.0,
2018-12-25, 08:47:06,VALID,919.42,VALID,0.0,VALID,88.357,VALID,203.042,VALID,22.092,VALID,12.0,VALID,0.404,
2018-12-25, 08:48:06,VALID,919.434,VALID,0.0,VALID,89.266,VALID,233.616,VALID,22.072,VALID,1.0,VALID,0.618,
2018-12-25, 08:49:06,VALID,919.463,VALID,0.0,VALID,89.292,VALID,306.152,VALID,22.077,VALID,25.0,VALID,0.3,
2018-12-25, 08:50:06,VALID,919.486,VALID,0.0,VALID,89.492,VALID,361.08,VALID,22.134,VALID,22.0,VALID,0.376,
2018-12-25, 08:51:06,VALID,919.462,VALID,0.0,VALID,89.059,VALID,544.93,VALID,22.151,VALID,1.0,VALID,1.231,
2018-12-25, 08:52:06,VALID,919.476,VALID,0.0,VALID,89.078,VALID,422.674,VALID,22.143,VALID,360.0,VALID,1.408,
2018-12-25, 08:53:06,VALID,919.461,VALID,0.0,VALID,87.784,VALID,327.728,VALID,22.085,VALID,5.0,VALID,1.399,
2018-12-25, 08:54:06,VALID,919.462,VALID,0.0,VALID,89.242,VALID,436.822,VALID,22.075,VALID,11.0,VALID,0.777,
2018-12-25, 08:55:06,VALID,919.47,VALID,0.0,VALID,89.705,VALID,323.779,VALID,22.216,VALID,1.0,VALID,0.471,
2018-12-25, 08:56:06,VALID,919.444,VALID,0.0,VALID,89.46,VALID,276.789,VALID,22.336,VALID,316.0,VALID,0.137,
2018-12-25, 08:57:06,VALID,919.423,VALID,0.0,VALID,87.603,VALID,500.344,VALID,22.418,VALID,342.0,VALID,0.0,
2018-12-25, 08:58:06,VALID,919.429,VALID,0.0,VALID,88.069,VALID,528.089,VALID,22.643,VALID,1.0,VALID,0.111,
2018-12-25, 08:59:06,VALID,919.446,VALID,0.0,VALID,85.477,VALID,658.582,VALID,22.853,VALID,307.0,VALID,0.128,
2018-12-25, 09:00:06,VALID,919.444,VALID,0.0,VALID,85.225,VALID,613.667,VALID,23.024,VALID,26.0,VALID,0.0,
2018-12-25, 09:01:06,VALID,919.441,VALID,0.0,VALID,84.343,VALID,403.766,VALID,23.295,VALID,334.0,VALID,0.0,
2018-12-25, 09:02:06,VALID,919.468,VALID,0.0,VALID,82.567,VALID,269.582,VALID,23.394,VALID,28.0,VALID,0.311,
2018-12-25, 09:03:06,VALID,919.481,VALID,0.0,VALID,83.683,VALID,202.395,VALID,23.413,VALID,42.0,VALID,0.4,
2018-12-25, 09:04:06,VALID,919.482,VALID,0.0,VALID,84.17,VALID,183.742,VALID,23.443,VALID,5.0,VALID,0.51,
2018-12-25, 09:05:06,VALID,919.496,VALID,0.0,VALID,85.166,VALID,211.075,VALID,23.314,VALID,355.0,VALID,0.172,
2018-12-25, 09:06:06,VALID,919.508,VALID,0.0,VALID,84.757,VALID,280.344,VALID,23.193,VALID,17.0,VALID,0.278,
2018-12-25, 09:07:06,VALID,919.522,VALID,0.0,VALID,84.519,VALID,441.112,VALID,23.109,VALID,3.0,VALID,0.014,
2018-12-25, 09:08:06,VALID,919.54,VALID,0.0,VALID,84.584,VALID,724.482,VALID,23.091,VALID,323.0,VALID,0.0,
2018-12-25, 09:09:06,VALID,919.515,VALID,0.0,VALID,83.098,VALID,645.859,VALID,23.205,VALID,44.0,VALID,0.0,
2018-12-25, 09:10:06,VALID,919.508,VALID,0.0,VALID,83.24,VALID,703.304,VALID,23.428,VALID,37.0,VALID,0.0,
2018-12-25, 09:11:06,VALID,919.496,VALID,0.0,VALID,83.482,VALID,657.119,VALID,23.681,VALID,316.0,VALID,0.12,
2018-12-25, 09:12:06,VALID,919.493,VALID,0.0,VALID,80.407,VALID,628.286,VALID,23.812,VALID,337.0,VALID,0.335,
2018-12-25, 09:13:06,VALID,919.509,VALID,0.0,VALID,81.797,VALID,711.605,VALID,23.913,VALID,6.0,VALID,0.323,
2018-12-25, 09:14:06,VALID,919.519,VALID,0.0,VALID,80.296,VALID,659.605,VALID,24.114,VALID,313.0,VALID,0.342,
2018-12-25, 09:15:06,VALID,919.545,VALID,0.0,VALID,77.98,VALID,687.939,VALID,24.095,VALID,268.0,VALID,0.653,
2018-12-25, 09:16:06,VALID,919.522,VALID,0.0,VALID,78.387,VALID,598.199,VALID,23.738,VALID,275.0,VALID,0.266,
2018-12-25, 09:17:06,VALID,919.52,VALID,0.0,VALID,78.574,VALID,762.96,VALID,23.66,VALID,295.0,VALID,0.343,
2018-12-25, 09:18:06,VALID,919.521,VALID,0.0,VALID,79.855,VALID,794.786,VALID,23.794,VALID,335.0,VALID,0.0,
2018-12-25, 09:19:06,VALID,919.531,VALID,0.0,VALID,80.17,VALID,653.595,VALID,24.112,VALID,305.0,VALID,0.0,
2018-12-25, 09:20:06,VALID,919.543,VALID,0.0,VALID,79.551,VALID,267.877,VALID,24.022,INVALID,360.0,VALID,0.0,
2018-12-25, 09:21:06,VALID,919.568,VALID,0.0,VALID,79.481,VALID,346.536,VALID,23.888,INVALID,360.0,VALID,0.0,
2018-12-25, 09:22:06,VALID,919.569,VALID,0.0,VALID,79.339,VALID,678.376,VALID,23.702,INVALID,360.0,VALID,0.0,
2018-12-25, 09:23:06,VALID,919.578,VALID,0.0,VALID,80.684,VALID,651.737,VALID,23.589,INVALID,360.0,VALID,0.0,
2018-12-25, 09:24:06,VALID,919.569,VALID,0.0,VALID,82.229,VALID,275.781,VALID,23.678,INVALID,360.0,VALID,0.0,
2018-12-25, 09:25:06,VALID,919.535,VALID,0.0,VALID,81.318,VALID,197.605,VALID,23.624,INVALID,360.0,VALID,0.0,
2018-12-25, 09:26:06,VALID,919.532,VALID,0.0,VALID,81.158,VALID,199.677,VALID,23.401,INVALID,360.0,VALID,0.0,
2018-12-25, 09:27:06,VALID,919.533,VALID,0.0,VALID,82.077,VALID,223.399,VALID,23.088,INVALID,360.0,VALID,0.0,
2018-12-25, 09:28:06,VALID,919.536,VALID,0.0,VALID,83.516,VALID,539.381,VALID,22.893,INVALID,360.0,VALID,0.0,
2018-12-25, 09:29:06,VALID,919.523,VALID,0.0,VALID,85.023,VALID,409.015,VALID,22.863,INVALID,360.0,VALID,0.0,
2018-12-25, 09:30:06,VALID,919.491,VALID,0.0,VALID,84.585,VALID,651.076,VALID,22.949,INVALID,360.0,VALID,0.0,
2018-12-25, 09:31:06,VALID,919.479,VALID,0.0,VALID,84.28,VALID,799.878,VALID,23.207,INVALID,360.0,VALID,0.0,
2018-12-25, 09:32:06,VALID,919.46,VALID,0.0,VALID,82.946,VALID,797.872,VALID,23.569,INVALID,360.0,VALID,0.451,
2018-12-25, 09:33:06,VALID,919.46,VALID,0.0,VALID,83.037,VALID,798.244,VALID,23.862,INVALID,360.0,VALID,0.688,
2018-12-25, 09:34:06,VALID,919.467,VALID,0.0,VALID,80.897,VALID,381.355,VALID,24.193,INVALID,360.0,VALID,0.0,
2018-12-25, 09:35:06,VALID,919.441,VALID,0.0,VALID,78.021,VALID,191.385,VALID,24.086,INVALID,360.0,VALID,0.0,
2018-12-25, 09:36:06,VALID,919.428,VALID,0.0,VALID,80.676,VALID,255.038,VALID,23.808,INVALID,360.0,VALID,0.0,
2018-12-25, 09:37:06,VALID,919.419,VALID,0.0,VALID,79.975,VALID,287.987,VALID,23.697,INVALID,360.0,VALID,0.0,
2018-12-25, 09:38:06,VALID,919.423,VALID,0.0,VALID,80.413,VALID,286.651,VALID,23.464,INVALID,360.0,VALID,0.0,
2018-12-25, 09:39:06,VALID,919.409,VALID,0.0,VALID,81.283,VALID,302.59,VALID,23.219,INVALID,360.0,VALID,0.0,
2018-12-25, 09:40:06,VALID,919.398,VALID,0.0,VALID,81.889,VALID,282.567,VALID,23.021,INVALID,360.0,VALID,0.0,
2018-12-25, 09:41:06,VALID,919.414,VALID,0.0,VALID,83.107,VALID,312.169,VALID,22.927,INVALID,360.0,VALID,0.0,
2018-12-25, 09:42:06,VALID,919.392,VALID,0.0,VALID,84.576,VALID,564.632,VALID,23.007,INVALID,360.0,VALID,0.0,
2018-12-25, 09:43:06,VALID,919.377,VALID,0.0,VALID,84.602,VALID,291.963,VALID,23.184,INVALID,360.0,VALID,0.0,
2018-12-25, 09:44:06,VALID,919.333,VALID,0.0,VALID,84.573,VALID,212.771,VALID,23.369,INVALID,360.0,VALID,0.0,
2018-12-25, 09:45:06,VALID,919.342,VALID,0.0,VALID,83.38,VALID,254.308,VALID,23.279,INVALID,360.0,VALID,0.0,
2018-12-25, 09:46:06,VALID,919.324,VALID,0.0,VALID,84.144,VALID,312.442,VALID,22.953,INVALID,360.0,VALID,0.0,
2018-12-25, 09:47:06,VALID,919.311,VALID,0.0,VALID,84.262,VALID,741.521,VALID,22.836,INVALID,360.0,VALID,0.0,
2018-12-25, 09:48:06,VALID,919.316,VALID,0.0,VALID,84.03,VALID,863.135,VALID,22.945,INVALID,360.0,VALID,0.0,
2018-12-25, 09:49:06,VALID,919.336,VALID,0.0,VALID,82.767,VALID,875.487,VALID,23.12,INVALID,360.0,VALID,0.0,
2018-12-25, 09:50:06,VALID,919.346,VALID,0.0,VALID,81.639,VALID,816.77,VALID,23.252,INVALID,360.0,VALID,0.0,
2018-12-25, 09:51:06,VALID,919.376,VALID,0.0,VALID,80.821,VALID,797.848,VALID,23.136,INVALID,360.0,VALID,0.0,
2018-12-25, 09:52:06,VALID,919.36,VALID,0.0,VALID,83.075,VALID,348.583,VALID,23.167,INVALID,360.0,VALID,0.0,
2018-12-25, 09:53:06,VALID,919.355,VALID,0.0,VALID,83.243,VALID,275.662,VALID,23.291,INVALID,360.0,VALID,0.0,
2018-12-25, 09:54:06,VALID,919.364,VALID,0.0,VALID,81.637,VALID,840.931,VALID,23.221,INVALID,360.0,VALID,0.0,
2018-12-25, 09:55:06,VALID,919.362,VALID,0.0,VALID,82.861,VALID,387.852,VALID,23.233,INVALID,360.0,VALID,0.0,
2018-12-25, 09:56:06,VALID,919.36,VALID,0.0,VALID,81.765,VALID,464.664,VALID,23.445,INVALID,360.0,VALID,0.0,
2018-12-25, 09:57:06,VALID,919.348,VALID,0.0,VALID,81.751,VALID,213.21,VALID,23.663,INVALID,360.0,VALID,0.0,
2018-12-25, 09:58:06,VALID,919.342,VALID,0.0,VALID,79.373,VALID,175.967,VALID,23.76,INVALID,360.0,VALID,0.0,
2018-12-25, 09:59:06,VALID,919.348,VALID,0.0,VALID,79.731,VALID,164.134,VALID,23.693,INVALID,360.0,VALID,0.0,
2018-12-25, 10:00:06,VALID,919.348,VALID,0.0,VALID,80.758,VALID,195.655,VALID,23.728,INVALID,360.0,VALID,0.0,
2018-12-25, 10:01:06,VALID,919.354,VALID,0.0,VALID,82.041,VALID,341.783,VALID,23.839,INVALID,360.0,VALID,0.0,
2018-12-25, 10:02:06,VALID,919.375,VALID,0.0,VALID,78.357,VALID,200.519,VALID,23.773,INVALID,360.0,VALID,0.0,
2018-12-25, 10:03:06,VALID,919.39,VALID,0.0,VALID,78.958,VALID,218.316,VALID,23.708,INVALID,360.0,VALID,0.0,
2018-12-25, 10:04:06,VALID,919.383,VALID,0.0,VALID,78.89,VALID,252.539,VALID,23.598,INVALID,360.0,VALID,0.0,
2018-12-25, 10:05:06,VALID,919.382,VALID,0.0,VALID,79.097,VALID,706.152,VALID,23.504,INVALID,360.0,VALID,0.0,
2018-12-25, 10:06:06,VALID,919.382,VALID,0.0,VALID,79.77,VALID,891.459,VALID,23.509,INVALID,360.0,VALID,0.0,
2018-12-25, 10:07:06,VALID,919.388,VALID,0.0,VALID,76.886,VALID,865.012,VALID,23.463,INVALID,360.0,VALID,0.0,
2018-12-25, 10:08:06,VALID,919.367,VALID,0.0,VALID,76.786,VALID,851.389,VALID,23.559,INVALID,360.0,VALID,0.0,
2018-12-25, 10:09:06,VALID,919.375,VALID,0.0,VALID,76.311,VALID,307.405,VALID,23.793,INVALID,360.0,VALID,0.0,
2018-12-25, 10:10:06,VALID,919.355,VALID,0.0,VALID,77.448,VALID,280.907,VALID,23.648,INVALID,360.0,VALID,0.0,
2018-12-25, 10:11:06,VALID,919.351,VALID,0.0,VALID,79.291,VALID,221.162,VALID,23.491,INVALID,360.0,VALID,0.0,
2018-12-25, 10:12:06,VALID,919.321,VALID,0.0,VALID,79.554,VALID,226.58,VALID,23.379,INVALID,360.0,VALID,0.0,
2018-12-25, 10:13:06,VALID,919.311,VALID,0.0,VALID,80.561,VALID,257.351,VALID,23.387,INVALID,360.0,VALID,0.0,
2018-12-25, 10:14:06,VALID,919.303,VALID,0.0,VALID,79.009,VALID,657.942,VALID,23.349,INVALID,360.0,VALID,0.0,
2018-12-25, 10:15:06,VALID,919.296,VALID,0.0,VALID,81.132,VALID,949.407,VALID,23.466,INVALID,360.0,VALID,0.0,
2018-12-25, 10:16:06,VALID,919.291,VALID,0.0,VALID,80.604,VALID,634.427,VALID,23.757,INVALID,360.0,VALID,0.0,
2018-12-25, 10:17:06,VALID,919.279,VALID,0.0,VALID,80.09,VALID,256.849,VALID,23.812,INVALID,360.0,VALID,0.0,
2018-12-25, 10:18:06,VALID,919.273,VALID,0.0,VALID,80.981,VALID,499.501,VALID,23.799,INVALID,360.0,VALID,0.0,
2018-12-25, 10:19:06,VALID,919.245,VALID,0.0,VALID,80.777,VALID,873.184,VALID,23.927,INVALID,360.0,VALID,0.0,
2018-12-25, 10:20:06,VALID,919.246,VALID,0.0,VALID,82.053,VALID,859.107,VALID,24.118,INVALID,360.0,VALID,0.0,
2018-12-25, 10:21:06,VALID,919.263,VALID,0.0,VALID,80.926,VALID,862.819,VALID,24.437,INVALID,360.0,VALID,0.0,
2018-12-25, 10:22:06,VALID,919.271,VALID,0.0,VALID,77.25,VALID,883.912,VALID,24.613,INVALID,360.0,VALID,0.0,
2018-12-25, 10:23:06,VALID,919.279,VALID,0.0,VALID,78.36,VALID,769.615,VALID,24.906,INVALID,360.0,VALID,0.0,
2018-12-25, 10:24:06,VALID,919.24,VALID,0.0,VALID,76.141,VALID,458.123,VALID,25.2,INVALID,360.0,VALID,0.0,
2018-12-25, 10:25:06,VALID,919.23,VALID,0.0,VALID,74.855,VALID,747.766,VALID,25.043,INVALID,360.0,VALID,0.0,
2018-12-25, 10:26:06,VALID,919.223,VALID,0.0,VALID,77.674,VALID,1012.447,VALID,24.924,INVALID,360.0,VALID,0.0,
2018-12-25, 10:27:06,VALID,919.225,VALID,0.0,VALID,76.182,VALID,1019.081,VALID,25.113,INVALID,360.0,VALID,0.0,
2018-12-25, 10:28:06,VALID,919.213,VALID,0.0,VALID,73.865,VALID,731.252,VALID,25.294,INVALID,360.0,VALID,0.0,
2018-12-25, 10:29:06,VALID,919.21,VALID,0.0,VALID,71.761,VALID,779.166,VALID,25.4,INVALID,360.0,VALID,0.0,
2018-12-25, 10:30:06,VALID,919.182,VALID,0.0,VALID,71.065,VALID,984.315,VALID,25.432,INVALID,360.0,VALID,0.0,
2018-12-25, 10:31:06,VALID,919.179,VALID,0.0,VALID,74.683,VALID,969.718,VALID,25.309,INVALID,360.0,VALID,0.0,
2018-12-25, 10:32:06,VALID,919.201,VALID,0.0,VALID,73.869,VALID,974.329,VALID,25.62,INVALID,360.0,VALID,0.0,
2018-12-25, 10:33:06,VALID,919.196,VALID,0.0,VALID,73.405,VALID,803.807,VALID,25.81,VALID,209.0,VALID,0.0,
2018-12-25, 10:34:06,VALID,919.198,VALID,0.0,VALID,71.889,VALID,911.685,VALID,25.903,VALID,221.0,VALID,0.0,
2018-12-25, 10:35:06,VALID,919.173,VALID,0.0,VALID,69.483,VALID,482.527,VALID,25.494,VALID,248.0,VALID,0.0,
2018-12-25, 10:36:06,VALID,919.162,VALID,0.0,VALID,73.612,VALID,400.8,VALID,25.4,VALID,331.0,VALID,0.0,
2018-12-25, 10:37:06,VALID,919.143,VALID,0.0,VALID,73.76,VALID,485.173,VALID,25.476,VALID,21.0,VALID,0.0,
2018-12-25, 10:38:06,VALID,919.136,VALID,0.0,VALID,74.336,VALID,332.521,VALID,25.39,VALID,5.0,VALID,0.0,